El Paso, TX

6:09 PM MDT on April 18, 2015 (GMT -0600)
El Paso International | | Change Station
CLOSE
Current Station
Airport
Location: El Paso,
Elevation: 3917 ft
Nearby Weather Stations
Active Advisory: Fire Weather Warning

Elev 3917 ft 31.81 °N, 106.38 °W | Updated 18 minutes ago

Partly Cloudy
Partly Cloudy
75 °F
Feels Like 75 °F
N
15
Wind Variable Wind from WNW
Gusts 26 mph

Today
High -- | Low -- °F
--% Chance of Precip.
Yesterday
High -- | Low -- °F
Precip. -- in
6:33 AM 7:36 PM
New Moon, 0% visible
Pressure 29.72 in
Visibility 10.0 miles
Clouds Few 12000 ft
Dew Point 20 °F
Humidity 13%
Rainfall 0.00 in
Snow Depth Not available.
UV 2 out of 12
Pollen 10.10 out of 12
Air Quality Not available.
Flu Activity Local Activity
METAR KELP 182351Z 29013G23KT 10SM FEW120 24/M07 A2986 RMK AO2 PK WND 27034/2338 SLP062 T02391067 10244 20194 56016 $

More Conditions Fewer Conditions

Pressure 29.72 in
Visibility 10.0 miles
Clouds Few 12000 ft
Dew Point 20 °F
Humidity 13%
Rainfall 0.00 in
Snow Depth Not available.
UV 2 out of 12
Pollen 10.10 out of 12
Air Quality Not available.
Flu Activity Local Activity
METAR KELP 182351Z 29013G23KT 10SM FEW120 24/M07 A2986 RMK AO2 PK WND 27034/2338 SLP062 T02391067 10244 20194 56016 $

More Conditions Fewer Conditions

10-Day Weather Forecast

Almanac

Astronomy

Apr. 18, 2015 Rise Set
Actual Time
Civil Twilight
Nautical Twilight
Astronomical Twilight
Moon
Length of Visible Light
Length of Day
Tomorrow will be .
, % of the Moon is Illuminated

Today's Extremes

State Highs State Lows

Community

WunderPhotos

Upload Photos

1,814,588 photos uploaded!

WunderBlogs® & News

Nearby

Air Quality

  Air Quality AQ Index Pollutant
Not available.

Snow Depth

Station Depth Elevation

Earthquake Activity

City Distance Mag. Time & Date
Minimum magnitude displayed is 2.5.

Coastal Water Temperatures

Place Temperature

Stations

Nearby Weather Stations

Station Location Temp. Windchill Dew Point Humidity Wind Precip. Elev Updated Type
                   
Fire Weather Warning
Statement as of 2:18 PM MDT on April 18, 2015

... Red flag warning remains in effect until 8 PM MDT this
evening...

* areas affected: much of the southern New Mexico lowlands
including fire weather zones 111 and the southern half of zone
112. Also Texas fire weather zones 055 and 056.

* Timing: today from 1 PM through 8 PM MDT.

* Winds: sustained 20-foot winds of around 20 mph with gusts to
30 mph.

* Humidity: 10 to 15 percent.

* Impacts... any fires that develop will likely spread rapidly.
Outdoor burning is not recommended.

Precautionary/preparedness actions...

A red flag warning means that critical fire weather conditions
are either occurring now... or will shortly. A combination of
strong winds... low relative humidity... and warm temperatures will
create extreme fire growth potential.